This demonstration page uses our WeatherBlox Daily Observations layout. Learn more.

39.92423, -83.80882

Hourly Observations for August 7, 2018

Temp ( °F °C ) Dew Point ( °F °C ) Humidity (%) Winds ( mph kmh ) Pressure ( in mb ) Visibility ( mi km ) Precip ( " mm )
12:56 am 00:56 Clear 73 22.8 72 22.2 96 96 SSW 6 9 30.03 1017 10 16.0934 0 0
1:56 am 01:56 Clear 75 23.9 68 20 79 79 WNW 14 22 30.06 1018 10 16.0934 0 0
2:01 am 02:01 Mostly Clear with Nearby Thunderstorms 75 24 66 19 74 74 NNW 14 22 30.06 1018 10 16.0934 0 0
2:24 am 02:24 Mostly Clear with Light Rain 73 23 66 19 78 78 NNW 13 20 30.06 1018 8 12.87472 0 0
2:33 am 02:33 Mostly Clear with Light Thunderstorms 72 22 68 20 88 88 NW 13 20 30.06 1018 10 16.0934 0 0
2:56 am 02:56 Mostly Clear with Light Rain 69 20.6 69 20.6 100 100 NW 6 9 30.06 1018 10 16.0934 0 0
3:56 am 03:56 Mostly Clear with Light Rain 68 20 68 20 100 100 W 6 9 30.04 1017 10 16.0934 0 0.0254
4:56 am 04:56 Mostly Clear with Rain 68 20 68 20 100 100 SW 6 9 30.03 1017 10 16.0934 0.09 2.286
5:56 am 05:56 Mostly Clear with Light Rain 67 19.4 67 19.4 100 100 SSW 6 9 30 1016 10 16.0934 0.05 1.27
6:56 am 06:56 Sunny 67 19.4 67 19.4 100 100 W 5 7 30.01 1016 10 16.0934 0 0.0254
7:56 am 07:56 Sunny 67 19.4 67 19.4 100 100 Calm 30.02 1017 10 16.0934 0.01 0.254
8:56 am 08:56 Sunny 71 21.7 70 21.1 96 96 SSW 7 11 30.02 1017 10 16.0934 0 0
9:56 am 09:56 Sunny 73 22.8 70 21.1 90 90 SSW 8 13 30.03 1017 10 16.0934 0 0
10:56 am 10:56 Sunny 76 24.4 71 21.7 85 85 WSW 8 13 30.03 1017 10 16.0934 0 0
12:56 pm 12:56 Sunny 80 26.7 71 21.7 74 74 VRB 3 6 30.01 1016 10 16.0934 0 0
1:56 pm 13:56 Sunny 81 27.2 74 23.3 79 79 S 7 11 30.01 1016 10 16.0934 0 0
2:56 pm 14:56 Sunny 82 27.8 72 22.2 72 72 SW 12 19 30 1016 10 16.0934 0 0
3:56 pm 15:56 Sunny 82 27.8 71 21.7 69 69 W 10 17 29.95 1014 10 16.0934 0 0
4:56 pm 16:56 Sunny 85 29.4 69 20.6 59 59 WNW 10 17 29.93 1014 10 16.0934 0 0
5:56 pm 17:56 Sunny 81 27.2 70 21.1 69 69 WNW 6 9 29.96 1014 10 16.0934 0 0
6:56 pm 18:56 Sunny 80 26.7 70 21.1 71 71 WNW 6 9 29.96 1014 10 16.0934 0 0
7:56 pm 19:56 Sunny 79 26.1 72 22.2 79 79 Calm 29.95 1014 10 16.0934 0 0
8:56 pm 20:56 Clear 75 23.9 73 22.8 94 94 S 6 9 29.95 1014 10 16.0934 0 0
9:56 pm 21:56 Clear 73 22.8 73 22.8 100 100 SSW 6 9 29.98 1015 10 16.0934 0 0
10:56 pm 22:56 Clear 72 22.2 72 22.2 100 100 S 6 9 29.97 1015 10 16.0934 0 0
11:56 pm 23:56 Clear 72 22.2 72 22.2 100 100 SW 7 11 29.97 1015 10 16.0934 0 0

Powered by AerisWeather